Shirley, NY

8:33 AM EDT on April 25, 2017 (GMT -0400)
Brookhaven

Weather History for KHWV - January, 2003

Change the Weather History Date:

Wednesday, January 1, 2003

  Actual Average (KISP) Record (KISP)
Temperature  
Mean Temperature 42 °F -  
Max Temperature 46 °F 39 °F 60 °F (2005)
Min Temperature 37 °F 25 °F 12 °F (1997)
Degree Days  
Heating Degree Days 24    
Moisture  
Dew Point 40 °F    
Average Humidity 92    
Maximum Humidity 97    
Minimum Humidity 77    
Precipitation  
Precipitation 1.38 in - - ()
Sea Level Pressure  
Sea Level Pressure 29.86 in    
Wind  
Wind Speed 7 mph (NE)    
Max Wind Speed 16 mph    
Max Gust Speed 28 mph    
Visibility 5 miles    
Events Rain    
Averages and records for this station are not official NWS values.
T = Trace of Precipitation, MM = Missing Value Source: NWS Daily Summary

Daily Weather History Graph

Daily Weather History Graph

Search for Another Location

Airport or City:

Trip Planner

Search our weather history database for the weather conditions in past years. The results will help you decide how hot, cold, wet, or windy it might be!

Date:

Astronomy

Jan. 01, 2003 Rise Set
Actual Time 7:15 AM EST 4:34 PM EST
Civil Twilight 6:44 AM EST 5:05 PM EST
Nautical Twilight 6:10 AM EST 5:39 PM EST
Astronomical Twilight 5:37 AM EST 6:12 PM EST
Moon 6:10 AM EST (1/1) 3:21 PM EST (1/1)
Length of Visible Light 10h 20m
Length of Day
9h 18m
Waning Crescent, 2% of the Moon is Illuminated
Jan 1
Waning Crescent
Jan 2
New
Jan 10
First Quarter
Jan 18
Full
Jan 25
Last Quarter

Hourly Weather History & Observations

Time (EST) Temp. Windchill Dew Point Humidity Pressure Visibility Wind Dir Wind Speed Gust Speed Precip Events Conditions
12:56 AM 43.0 °F 39.5 °F 41.0 °F 93% 29.97 in 6.0 mi West 5.8 mph - N/A   Clear
1:56 AM 44.1 °F 41.5 °F 39.9 °F 85% 29.99 in 7.0 mi WSW 4.6 mph - N/A   Clear
2:56 AM 45.0 °F 41.2 °F 39.9 °F 82% 29.99 in 8.0 mi West 6.9 mph - N/A   Clear
3:56 AM 46.9 °F - 39.9 °F 77% 30.00 in 8.0 mi WSW 6.9 mph - N/A   Mostly Cloudy
4:56 AM 45.0 °F 42.6 °F 39.9 °F 82% 30.00 in 8.0 mi WSW 4.6 mph - N/A   Overcast
5:56 AM 44.1 °F - 41.0 °F 89% 30.00 in 7.0 mi Calm Calm - N/A   Overcast
6:56 AM 43.0 °F - 41.0 °F 93% 30.01 in 6.0 mi Calm Calm - N/A   Partly Cloudy
7:56 AM 43.0 °F - 42.1 °F 97% 30.03 in 3.0 mi Calm Calm - 0.00 in Rain Light Rain
8:56 AM 44.1 °F - 43.0 °F 96% 30.06 in 2.5 mi Calm Calm - 0.01 in Rain Light Rain
9:11 AM 46.4 °F - 44.6 °F 93% 30.05 in 4.0 mi Calm Calm - 0.00 in Rain Light Rain
9:56 AM 46.0 °F 43.9 °F 43.0 °F 89% 30.06 in 5.0 mi North 4.6 mph - 0.00 in Rain Light Rain
10:56 AM 45.0 °F 41.2 °F 43.0 °F 93% 30.01 in 5.0 mi Variable 6.9 mph - 0.01 in   Mostly Cloudy
11:56 AM 44.1 °F 39.5 °F 42.1 °F 93% 29.98 in 5.0 mi NNE 8.1 mph - 0.00 in Rain Light Rain
12:44 PM 42.8 °F 40.1 °F 41.0 °F 93% 29.96 in 2.5 mi Variable 4.6 mph - 0.07 in Rain Rain
12:56 PM 42.1 °F 39.2 °F 41.0 °F 96% 29.95 in 2.0 mi Variable 4.6 mph - 0.11 in Rain Light Rain
1:10 PM 42.8 °F 37.0 °F 41.0 °F 93% 29.94 in 3.0 mi NE 10.4 mph - 0.02 in Rain Light Rain
1:56 PM 41.0 °F 35.2 °F 39.0 °F 93% 29.91 in 5.0 mi NE 9.2 mph - 0.06 in Rain Light Rain
2:24 PM 39.2 °F 32.5 °F 37.4 °F 93% 29.89 in 3.0 mi NE 10.4 mph - 0.02 in Rain Light Rain
2:56 PM 39.9 °F 34.5 °F 37.9 °F 93% 29.88 in 3.0 mi ENE 8.1 mph - 0.05 in Rain Light Rain
3:43 PM 41.0 °F 34.7 °F 39.2 °F 93% 29.87 in 4.0 mi ENE 10.4 mph 16.1 mph 0.04 in Rain Light Rain
3:56 PM 41.0 °F 34.7 °F 39.0 °F 93% 29.87 in 4.0 mi NE 10.4 mph 16.1 mph 0.05 in Rain Light Rain
4:10 PM 41.0 °F 35.8 °F 39.2 °F 93% 29.87 in 5.0 mi ENE 8.1 mph - 0.00 in Rain Light Rain
4:26 PM 41.0 °F 35.2 °F 39.2 °F 93% 29.86 in 4.0 mi ENE 9.2 mph - 0.02 in Rain Light Rain
4:33 PM 41.0 °F 35.2 °F 39.2 °F 93% 29.85 in 5.0 mi NE 9.2 mph 20.7 mph 0.03 in Rain Light Rain
4:56 PM 41.0 °F 35.8 °F 39.0 °F 93% 29.85 in 7.0 mi ENE 8.1 mph - 0.05 in Rain Light Rain
5:16 PM 41.0 °F 34.7 °F 39.2 °F 93% 29.83 in 7.0 mi NE 10.4 mph 18.4 mph 0.02 in Rain Light Rain
5:56 PM 41.0 °F 34.3 °F 39.9 °F 96% 29.80 in 3.0 mi NE 11.5 mph 19.6 mph 0.11 in Rain Rain
6:56 PM 39.9 °F 32.9 °F 37.9 °F 93% 29.76 in 4.0 mi NE 11.5 mph 21.9 mph 0.09 in Rain Light Rain
7:21 PM 39.2 °F 32.5 °F 37.4 °F 93% 29.75 in 6.0 mi NE 10.4 mph 23.0 mph 0.03 in Rain Light Rain
7:42 PM 39.2 °F 31.6 °F 37.4 °F 93% 29.73 in 4.0 mi NE 12.7 mph 25.3 mph 0.07 in Rain Rain
7:56 PM 39.9 °F 32.5 °F 37.9 °F 93% 29.71 in 5.0 mi NE 12.7 mph 20.7 mph 0.09 in Rain Light Rain
8:56 PM 37.9 °F 28.9 °F 37.0 °F 97% 29.67 in 4.0 mi NE 16.1 mph 27.6 mph 0.09 in Rain Rain
9:56 PM 39.0 °F 31.8 °F 37.0 °F 93% 29.64 in 3.0 mi NNE 11.5 mph 23.0 mph 0.20 in Rain Rain
10:05 PM 39.2 °F 31.2 °F 37.4 °F 93% 29.64 in 2.0 mi NNE 13.8 mph 19.6 mph 0.08 in Rain Heavy Rain
10:18 PM 39.2 °F 31.2 °F 37.4 °F 93% 29.63 in 4.0 mi NNE 13.8 mph 21.9 mph 0.12 in Rain Light Rain
10:56 PM 39.0 °F 31.4 °F 37.9 °F 96% 29.60 in 4.0 mi NNE 12.7 mph 24.2 mph 0.21 in Rain Light Rain
11:24 PM 39.2 °F 31.2 °F 37.4 °F 93% 29.60 in 2.5 mi North 13.8 mph 25.3 mph 0.07 in Rain Rain
11:56 PM 39.0 °F 30.3 °F 37.0 °F 93% 29.60 in 2.5 mi North 16.1 mph 26.5 mph 0.25 in Rain Rain